Puyallup, WA
on Thursday, January 31, 2013

Thursday
Previous Day Next Day
Daily Summary
 ActualAverage (KSEA)Record (KSEA)
Temperature
Mean Temperature °F 43°F  
Max Temperature 50°F 49°F 61°F (1960)
Min Temperature 44°F 37°F 0°F (1950)
Degree Days
Heating Degree Days 18 22  
Month to date heating degree days 710  
Since 1 July heating degree days 2649  
Cooling Degree Days 0 0  
Month to date cooling degree days 0  
Year to date cooling degree days 0  
Moisture
Dew Point 45°F   
Average Humidity 93    
Maximum Humidity 100    
Minimum Humidity 82    
Precipitation
Precipitation 0.03 in 0.16 in 1.93 in (1987)
Month to date precipitation 5.57  
Year to date precipitation 5.57  
Snow
Snow 0.00 in in 2.00 in (1969)
Month to date snowfall  
Since 1 July snowfall  
Snow Depth in   
Wind
Wind Speed 1 mph   
Max Wind Speed 8 mph   
Max Gust Speed mph   
Visibility 10 miles   
Events Rain   

Key: T is trace of precipitation, MM is missing value
Source: NWS Daily Summary
Time(PST)TemperatureDew PointHumidity Pressure Visibility Wind DirectionWind SpeedGust SpeedPrecipitationEvents Conditions
12:15 AM 46.4°F 46.4°F 100% 30.39 in 2.0 miles Calm Calm - N/A   Overcast
12:35 AM 46.4°F 46.4°F 100% 30.39 in 2.0 miles Calm Calm - N/A   Overcast
12:55 AM 46.4°F 46.4°F 100% 30.39 in 2.0 miles Calm Calm - 0.01 in Rain Light Rain
1:15 AM 46.4°F 46.4°F 100% 30.39 in 3.0 miles Calm Calm - N/A   Overcast
1:35 AM 46.4°F 46.4°F 100% 30.40 in 10.0 miles Calm Calm - N/A   Overcast
1:55 AM 46.4°F 46.4°F 100% 30.40 in 10.0 miles Calm Calm - N/A   Overcast
2:15 AM 46.4°F 46.4°F 100% 30.40 in 10.0 miles Calm Calm - N/A   Overcast
2:35 AM 46.4°F 46.4°F 100% 30.41 in 10.0 miles Calm Calm - N/A   Overcast
2:55 AM 46.4°F 46.4°F 100% 30.41 in 10.0 miles Calm Calm - N/A   Overcast
3:15 AM 46.4°F 46.4°F 100% 30.41 in 10.0 miles Calm Calm - N/A   Overcast
3:35 AM 46.4°F 46.4°F 100% 30.41 in 10.0 miles Calm Calm - N/A   Overcast
3:55 AM 46.4°F 46.4°F 100% 30.41 in 10.0 miles Calm Calm - N/A   Overcast
4:15 AM 46.4°F 46.4°F 100% 30.41 in 10.0 miles Calm Calm - N/A   Overcast
4:35 AM 46.4°F 46.4°F 100% 30.40 in 10.0 miles Calm Calm - N/A   Overcast
4:55 AM 46.4°F 46.4°F 100% 30.40 in 10.0 miles Calm Calm - N/A   Overcast
5:15 AM 44.6°F 44.6°F 100% 30.39 in 10.0 miles Calm Calm - N/A   Scattered Clouds
5:35 AM 44.6°F 44.6°F 100% 30.39 in 10.0 miles Calm Calm - N/A   Clear
5:55 AM 44.6°F 44.6°F 100% 30.39 in 10.0 miles Calm Calm - N/A   Mostly Cloudy
6:15 AM 44.6°F 44.6°F 100% 30.39 in 10.0 miles Calm Calm - N/A   Mostly Cloudy
6:35 AM 44.6°F 44.6°F 100% 30.39 in 10.0 miles Calm Calm - N/A   Mostly Cloudy
6:55 AM 44.6°F 44.6°F 100% 30.39 in 10.0 miles Calm Calm - N/A   Mostly Cloudy
7:15 AM 44.6°F 44.6°F 100% 30.38 in 10.0 miles Calm Calm - N/A   Overcast
7:35 AM 44.6°F 42.8°F 93% 30.38 in 10.0 miles Calm Calm - N/A   Scattered Clouds
7:55 AM 44.6°F 42.8°F 93% 30.38 in 10.0 miles Calm Calm - N/A   Mostly Cloudy
8:15 AM 44.6°F 42.8°F 93% 30.38 in 10.0 miles Calm Calm - N/A   Overcast
8:35 AM 46.4°F 42.8°F 87% 30.38 in 10.0 miles Calm Calm - N/A   Mostly Cloudy
8:55 AM 46.4°F 42.8°F 87% 30.38 in 10.0 miles Calm Calm - N/A   Mostly Cloudy
9:15 AM 46.4°F 42.8°F 87% 30.38 in 10.0 miles Calm Calm - N/A   Clear
9:35 AM 48.2°F 42.8°F 82% 30.38 in 10.0 miles Calm Calm - N/A   Scattered Clouds
9:55 AM 48.2°F 42.8°F 82% 30.38 in 10.0 miles South 3.5 mph - N/A   Scattered Clouds
10:15 AM 48.2°F 42.8°F 82% 30.38 in 10.0 miles Calm Calm - N/A   Mostly Cloudy
10:35 AM 48.2°F 44.6°F 87% 30.38 in 10.0 miles Calm Calm - N/A   Mostly Cloudy
10:55 AM 48.2°F 44.6°F 87% 30.38 in 9.0 miles Calm Calm - N/A Rain Light Rain
11:15 AM 46.4°F 44.6°F 93% 30.38 in 7.0 miles Calm Calm - 0.02 in Rain Light Rain
11:35 AM 46.4°F 44.6°F 93% 30.37 in 8.0 miles Calm Calm - 0.02 in Rain Light Rain
11:55 AM 46.4°F 44.6°F 93% 30.36 in 10.0 miles Calm Calm - 0.02 in Rain Light Rain
12:15 PM 46.4°F 44.6°F 93% 30.36 in 10.0 miles Calm Calm - N/A   Overcast
12:35 PM 46.4°F 44.6°F 93% 30.36 in 10.0 miles Calm Calm - N/A   Overcast
12:55 PM 48.2°F 44.6°F 87% 30.35 in 10.0 miles Calm Calm - N/A   Overcast
1:15 PM 48.2°F 46.4°F 93% 30.35 in 10.0 miles Calm Calm - N/A   Overcast
1:35 PM 48.2°F 46.4°F 93% 30.34 in 10.0 miles Calm Calm - N/A   Overcast
1:55 PM 50.0°F 44.6°F 82% 30.34 in 10.0 miles South 3.5 mph - N/A   Mostly Cloudy
2:15 PM 48.2°F 44.6°F 87% 30.33 in 10.0 miles Calm Calm - N/A   Mostly Cloudy
2:35 PM 48.2°F 44.6°F 87% 30.33 in 10.0 miles SW 5.8 mph - N/A   Scattered Clouds
2:55 PM 48.2°F 44.6°F 87% 30.32 in 10.0 miles South 8.1 mph - N/A   Mostly Cloudy
3:15 PM 48.2°F 44.6°F 87% 30.32 in 10.0 miles SSW 6.9 mph - N/A   Mostly Cloudy
3:35 PM 48.2°F 44.6°F 87% 30.32 in 10.0 miles SW 6.9 mph - N/A   Mostly Cloudy
3:55 PM 48.2°F 46.4°F 93% 30.32 in 10.0 miles SSW 4.6 mph - N/A   Mostly Cloudy
4:15 PM 48.2°F 46.4°F 93% 30.32 in 10.0 miles Calm Calm - N/A   Overcast
4:35 PM 48.2°F 44.6°F 87% 30.32 in 10.0 miles Calm Calm - N/A   Overcast
4:55 PM 48.2°F 44.6°F 87% 30.32 in 10.0 miles Calm Calm - N/A   Overcast
5:15 PM 48.2°F 44.6°F 87% 30.32 in 10.0 miles Calm Calm - N/A   Overcast
5:35 PM 48.2°F 44.6°F 87% 30.32 in 10.0 miles Calm Calm - N/A   Overcast
5:55 PM 48.2°F 44.6°F 87% 30.31 in 10.0 miles Calm Calm - N/A   Overcast
6:15 PM 46.4°F 44.6°F 93% 30.32 in 10.0 miles Calm Calm - N/A   Overcast
6:35 PM 46.4°F 44.6°F 93% 30.32 in 10.0 miles Calm Calm - N/A   Mostly Cloudy
6:55 PM 46.4°F 44.6°F 93% 30.31 in 10.0 miles Calm Calm - N/A   Mostly Cloudy
7:15 PM 46.4°F 44.6°F 93% 30.32 in 10.0 miles Calm Calm - N/A   Overcast
7:35 PM 46.4°F 44.6°F 93% 30.32 in 10.0 miles Calm Calm - N/A   Overcast
7:55 PM 46.4°F 44.6°F 93% 30.32 in 10.0 miles Calm Calm - N/A   Overcast
8:15 PM 46.4°F 44.6°F 93% 30.32 in 10.0 miles Calm Calm - N/A   Overcast
8:35 PM 48.2°F 44.6°F 87% 30.32 in 10.0 miles Calm Calm - N/A   Overcast
8:55 PM 48.2°F 44.6°F 87% 30.32 in 10.0 miles SW 5.8 mph - N/A   Overcast
9:15 PM 48.2°F 44.6°F 87% 30.32 in 10.0 miles SW 4.6 mph - N/A   Overcast
9:35 PM 46.4°F 44.6°F 93% 30.32 in 10.0 miles SW 3.5 mph - N/A   Overcast
9:55 PM 46.4°F 44.6°F 93% 30.32 in 10.0 miles SW 3.5 mph - N/A   Overcast
10:15 PM 46.4°F 44.6°F 93% 30.33 in 10.0 miles WSW 4.6 mph - N/A   Overcast
10:35 PM 46.4°F 44.6°F 93% 30.33 in 10.0 miles WSW 4.6 mph - N/A   Overcast
10:55 PM 46.4°F 44.6°F 93% 30.33 in 9.0 miles Calm Calm - N/A   Overcast
11:15 PM 46.4°F 44.6°F 93% 30.33 in 10.0 miles Calm Calm - N/A   Overcast
11:35 PM 46.4°F 44.6°F 93% 30.33 in 10.0 miles Calm Calm - N/A   Overcast
11:55 PM 46.4°F 44.6°F 93% 30.34 in 10.0 miles Calm Calm - N/A   Overcast
Moon Phase
Jan. 31 Feb. 03 Feb. 10 Feb. 17 Feb. 25
Sunrise:07:35 AM (PST) Moon Rise:10:44 PM (PST)
Sunset:05:10 PM (PST) Moon Set:09:15 AM (PST)

Copyright © 2014 The Weather Underground, Inc.